TimeCEST,TemperatureF,Dew PointF,Humidity,Sea Level PressureIn,VisibilityMPH,Wind Direction,Wind SpeedMPH,Gust SpeedMPH,PrecipitationIn,Events,Conditions,WindDirDegrees,DateUTC
12:00 AM,39.2,35.6,87,30.01,-9999.0,North,4.6,-,N/A,,Clear,10,2012-10-08 22:00:00
12:30 AM,39.2,35.6,87,30.01,-9999.0,North,3.5,-,N/A,,Clear,10,2012-10-08 22:30:00
1:00 AM,39.2,33.8,81,29.98,-9999.0,NE,4.6,-,N/A,,Clear,40,2012-10-08 23:00:00
1:30 AM,37.4,33.8,87,29.98,-9999.0,NE,2.3,-,N/A,,Clear,40,2012-10-08 23:30:00
2:00 AM,38,34,80,30.02,19,North,2.2,,,,Clear,10,2012-10-09 00:00:00
2:00 AM,37.4,33.8,87,29.98,-9999.0,Variable,1.2,-,N/A,,Clear,0,2012-10-09 00:00:00
2:30 AM,37.4,33.8,87,29.98,-9999.0,NE,2.3,-,N/A,,Clear,40,2012-10-09 00:30:00
3:00 AM,35.6,33.8,93,29.95,-9999.0,Variable,1.2,-,N/A,,Clear,0,2012-10-09 01:00:00
3:30 AM,37.4,33.8,87,29.92,-9999.0,Variable,2.3,-,N/A,,Clear,0,2012-10-09 01:30:00
4:00 AM,37.4,33.8,87,29.92,-9999.0,NE,4.6,-,N/A,,Clear,40,2012-10-09 02:00:00
4:30 AM,35.6,32.0,87,29.89,-9999.0,Variable,1.2,-,N/A,,Clear,0,2012-10-09 02:30:00
5:00 AM,35.6,32.0,87,29.89,-9999.0,Variable,1.2,-,N/A,,Clear,0,2012-10-09 03:00:00
5:30 AM,35.6,33.8,93,29.89,-9999.0,NW,3.5,-,N/A,,Clear,320,2012-10-09 03:30:00
6:00 AM,37.4,33.8,87,29.86,-9999.0,Calm,Calm,-,N/A,,Clear,0,2012-10-09 04:00:00
6:30 AM,37.4,33.8,87,29.86,-9999.0,Variable,2.3,-,N/A,,Clear,0,2012-10-09 04:30:00
7:00 AM,37.4,33.8,87,29.86,-9999.0,Variable,2.3,-,N/A,,Clear,0,2012-10-09 05:00:00
7:30 AM,37.4,33.8,87,29.86,-9999.0,Calm,Calm,-,N/A,,Clear,0,2012-10-09 05:30:00
8:00 AM,40,36,79,29.89,9,ENE,4.5,,,,Mostly Cloudy,60,2012-10-09 06:00:00
8:00 AM,39.2,35.6,87,29.86,-9999.0,ENE,3.5,-,N/A,,Clear,60,2012-10-09 06:00:00
8:30 AM,41.0,35.6,81,29.86,-9999.0,Variable,1.2,-,N/A,,Clear,0,2012-10-09 06:30:00
9:00 AM,41.0,37.4,87,29.86,-9999.0,East,2.3,-,N/A,,Clear,90,2012-10-09 07:00:00
9:30 AM,44.6,37.4,76,29.86,-9999.0,Variable,2.3,-,N/A,,Clear,0,2012-10-09 07:30:00
10:00 AM,44.6,37.4,76,29.86,-9999.0,South,3.5,-,N/A,,Clear,170,2012-10-09 08:00:00
10:30 AM,44.6,39.2,81,29.83,-9999.0,SSE,5.8,-,N/A,,Clear,150,2012-10-09 08:30:00
11:00 AM,44.6,39.2,81,29.86,-9999.0,South,4.6,-,N/A,,Clear,170,2012-10-09 09:00:00
11:30 AM,46.4,39.2,76,29.86,6.2,SSW,4.6,-,N/A,,Partly Cloudy,200,2012-10-09 09:30:00
12:00 PM,48.2,41.0,76,29.86,6.2,SSW,5.8,-,N/A,,Partly Cloudy,210,2012-10-09 10:00:00
12:30 PM,48.2,41.0,76,29.83,6.2,SSE,3.5,-,N/A,,Partly Cloudy,160,2012-10-09 10:30:00
1:00 PM,50.0,41.0,71,29.83,6.2,South,3.5,-,N/A,,Partly Cloudy,190,2012-10-09 11:00:00
1:30 PM,51.8,42.8,71,29.83,6.2,SSE,4.6,-,N/A,,Partly Cloudy,150,2012-10-09 11:30:00
2:00 PM,52,43,62,29.83,12,SSW,6.7,,,,Mostly Cloudy,200,2012-10-09 12:00:00
2:00 PM,51.8,42.8,71,29.83,-9999.0,SSW,5.8,-,N/A,,Clear,200,2012-10-09 12:00:00
2:30 PM,53.6,42.8,67,29.80,-9999.0,SSW,6.9,-,N/A,,Clear,200,2012-10-09 12:30:00
3:00 PM,53.6,44.6,72,29.80,-9999.0,SSW,6.9,-,N/A,,Clear,200,2012-10-09 13:00:00
3:30 PM,53.6,42.8,67,29.80,-9999.0,SSW,6.9,-,N/A,,Clear,210,2012-10-09 13:30:00
4:00 PM,55.4,44.6,67,29.80,-9999.0,SSW,6.9,-,N/A,,Clear,210,2012-10-09 14:00:00
4:30 PM,55.4,44.6,67,29.80,6.2,SSW,5.8,-,N/A,,Mostly Cloudy,200,2012-10-09 14:30:00
5:00 PM,55.4,44.6,67,29.80,6.2,WSW,4.6,-,N/A,,Overcast,240,2012-10-09 15:00:00
5:30 PM,53.6,46.4,77,29.83,6.2,SW,4.6,-,N/A,,Mostly Cloudy,230,2012-10-09 15:30:00
6:00 PM,53.6,46.4,77,29.83,6.2,SW,4.6,-,N/A,,Partly Cloudy,230,2012-10-09 16:00:00
6:30 PM,51.8,46.4,82,29.83,6.2,WSW,2.3,-,N/A,,Partly Cloudy,250,2012-10-09 16:30:00
7:00 PM,51.8,44.6,76,29.86,-9999.0,NNW,5.8,-,N/A,,Clear,340,2012-10-09 17:00:00
7:30 PM,51.8,44.6,76,29.86,-9999.0,North,5.8,-,N/A,,Clear,10,2012-10-09 17:30:00
8:00 PM,51,44,68,29.90,6,North,6.7,,,,Scattered Clouds,350,2012-10-09 18:00:00
8:00 PM,50.0,42.8,76,29.86,-9999.0,North,9.2,-,N/A,,Clear,360,2012-10-09 18:00:00
8:30 PM,50.0,42.8,76,29.89,-9999.0,North,5.8,-,N/A,,Clear,350,2012-10-09 18:30:00
9:00 PM,48.2,39.2,71,29.89,-9999.0,NNW,5.8,-,N/A,,Clear,340,2012-10-09 19:00:00
9:30 PM,48.2,39.2,71,29.89,-9999.0,NW,6.9,-,N/A,,Clear,310,2012-10-09 19:30:00
10:00 PM,46.4,39.2,76,29.92,-9999.0,WNW,8.1,-,N/A,,Clear,300,2012-10-09 20:00:00
10:30 PM,44.6,39.2,81,29.92,-9999.0,WNW,6.9,-,N/A,,Clear,300,2012-10-09 20:30:00
11:01 PM,42.8,37.4,81,29.92,-9999.0,WNW,5.8,-,N/A,,Clear,300,2012-10-09 21:01:00
11:30 PM,42.8,37.4,81,29.92,-9999.0,West,4.6,-,N/A,,Clear,280,2012-10-09 21:30:00